x

Buoy I01 - Eastern Maine Shelf (44034) Wave Buoy

2:04am - Wed 27th Jul 2016 All times are EDT. -4 hours from GMT.

  • Sig Wave height 1.6ft
  • Peak Period 5s
  • Wind
    4mph
  • Sea Temp 58°f
  • 空気 Temp 62°f
  • Sea Pressure 1010.2mb
  • Buoy I01 - Eastern Maine Shelf
  • Buoy I01 - Eastern Maine Shelf

More Historic Weather Station data

Upgrade to MSW Pro to gain access to the past 30 days of data for over 8000 Wavebouys and Weather Stations around the globe.

Join Pro

Comparision Forecast

View Surf forecast
   
Wed 07/27 2:04am 1.6ft 5s 4
mph
1010.2mb 58f 62f
1:04am 1.6ft 5s 4
mph
1010.4mb 59f 61f
12:04am 1.6ft 5s 4 9 mph 1010.1mb 59f 61f
Tue 07/26 11:04pm 1.6ft 5s 2 4 mph 1009.5mb 59f 61f
10:04pm 1.6ft 5s 4 7 mph 1009.2mb 58f 61f
9:04pm 2ft 5s 4
mph
1008.9mb 58f 61f
8:04pm 2ft 5s 4
mph
1007.8mb 58f 62f
7:04pm 1.6ft 5s 7
mph
1007.3mb 59f 62f
6:04pm 2ft 5s 7 9 mph 1006.9mb 58f 62f
5:04pm 2.5ft 5s 9 11 mph 1006.7mb 59f 64f
4:04pm 2ft 5s 4 7 mph 1006.8mb 58f 67f
3:04pm 2ft 5s 9
mph
1006.5mb 58f 61f
2:04pm 2.5ft 5s 9 11 mph 1006.7mb 58f 60f
1:04pm 2.5ft 5s 7
mph
1006.8mb 57f 60f
12:04pm 2.5ft 5s 4
mph
1007.1mb 56f 62f
11:04am 2.5ft 5s 4 7 mph 1007.1mb 56f 64f
10:04am 2.5ft 6s 2 4 mph 1007.1mb 56f 61f
9:04am 2.5ft 5s 2
mph
1007mb 56f 60f
8:04am 2.5ft 5s 7
mph
1007mb 56f 59f
7:04am 1.6ft 6s 2 4 mph 1006.8mb 56f 58f
5:04am 1.6ft 6s 4
mph
1006.1mb 57f 59f
4:04am 1.6ft 6s 9 11 mph 1005.5mb 57f 60f
3:04am 1.6ft 6s 11 13 mph 1005.7mb 57f 61f
2:04am 1.3ft 6s 9
mph
1007.1mb 57f 61f
1:04am 1.6ft 6s 4 7 mph 1007.6mb 57f 63f
12:04am 1.6ft 6s 4 7 mph 1008mb 57f 63f
Mon 07/25 11:04pm 1.6ft 6s 4
mph
1008.5mb 57f 60f
10:04pm 1.6ft 6s 7 9 mph 1009mb 57f 59f
9:04pm 1.6ft 6s 7
mph
1009.7mb 56f 59f
7:04pm 2ft 6s 4
mph
1010.1mb 56f 59f
6:04pm 1.6ft 6s 4 7 mph 1010.2mb 56f 60f
5:04pm 1.6ft 6s 9 11 mph 1010.8mb 57f 63f
4:04pm 1.6ft 6s 7
mph
1011.2mb 58f 61f
3:04pm 1.6ft 6s 9
mph
1012mb 59f 61f
2:04pm 1.6ft 6s 7 9 mph 1012.5mb 60f 62f
1:04pm 1.6ft 6s 7
mph
1012.8mb 59f 63f
12:04pm 1.3ft 6s 4 7 mph 1013.1mb 60f 65f
11:04am 2ft 8s 4
mph
1013.6mb 56f 63f
10:04am 2ft 8s 2 4 mph 1013.8mb 56f 62f
8:04am 2ft 8s 2 4 mph 1014.3mb 56f 60f
7:04am 2.5ft 6s 4
mph
1013.9mb 56f 58f
6:04am 2ft 8s 2 4 mph 1013.5mb 56f 58f
5:04am 2.5ft 8s 4
mph
1013.2mb 56f 58f
4:04am 2ft 8s 4 7 mph 1012.9mb 56f 58f
3:04am 2.5ft 6s 4 7 mph 1013mb 56f 59f
2:04am 2.5ft 8s 4 7 mph 1012.9mb 56f 60f
1:04am 2ft 8s 4 7 mph 1013.3mb 57f 59f
12:04am 2ft 8s 4 7 mph 1013.7mb 57f 59f
Sun 07/24 11:04pm 2ft 8s 7 9 mph 1013.6mb 57f 60f
10:04pm 2.5ft 8s 9
mph
1013.7mb 56f 60f
9:04pm 2.5ft 8s 11 13 mph 1013.7mb 56f 60f
8:04pm 2.5ft 8s 11
mph
1013mb 56f 60f
7:04pm 2.5ft 8s 11
mph
1012.4mb 54f 60f
6:04pm 3ft 8s 11 13 mph 1012mb 54f 61f
5:04pm 2.5ft 6s 13 16 mph 1011.5mb 55f 61f
4:04pm 2.5ft 8s 11 13 mph 1011.2mb 57f 64f
3:04pm 2.5ft 8s 4 7 mph 1011.4mb 59f 65f
2:04pm 2.5ft 8s 7
mph
1011.6mb 57f 64f
1:04pm 2.5ft 8s 7
mph
1011.3mb 55f 65f
12:04pm 2.5ft 8s 2
mph
1011.6mb 59f 68f
11:04am 2.5ft 8s 4
mph
1011.6mb 56f 64f
10:04am 2ft 8s 2 4 mph 1011.7mb 56f 63f
9:04am 2.5ft 8s 4 7 mph 1011.3mb 56f 64f
8:04am 2.5ft 8s 9 11 mph 1011.1mb 55f 62f
7:04am 3ft 8s 7 9 mph 1010.5mb 55f 61f
6:04am 3ft 8s 7 9 mph 1009.8mb 55f 62f
5:04am 3ft 8s 7 9 mph 1009.4mb 55f 63f
4:04am 2.5ft 6s 11 13 mph 1008.4mb 55f 64f
3:04am 2.5ft 6s 9 11 mph 1007.7mb 56f 61f
2:04am 2.5ft 6s 9 11 mph 1007.7mb 56f 61f
1:04am 2.5ft 6s 9 11 mph 1007.8mb 56f 60f
12:04am 2.5ft 6s 9
mph
1008mb 56f 60f
Sat 07/23 11:04pm 2.5ft 6s 7
mph
1007.8mb 56f 60f
10:04pm 2.5ft 6s 7 9 mph 1007mb 56f 61f
9:04pm 2.5ft 6s 7 9 mph 1007mb 56f 60f
8:04pm 3.5ft 6s 11
mph
1006.2mb 57f 60f
7:04pm 3ft 6s 4 7 mph 1005.7mb 57f 60f
6:04pm 2.5ft 5s 11
mph
1006.1mb 57f 62f
5:04pm 3ft 6s 7 9 mph 1005.5mb 56f 62f
4:04pm 3ft 6s 9
mph
1005.5mb 57f 62f
3:04pm 3.5ft 6s 9 11 mph 1005.2mb 57f 61f
2:04pm 3.5ft 6s 9 11 mph 1005.2mb 58f 61f
1:04pm 4ft 6s 9 11 mph 1005.8mb 57f 61f
12:04pm 3.5ft 6s 11 13 mph 1006.2mb 56f 60f
11:04am 3.5ft 6s 9
mph
1006.2mb 57f 60f
10:04am 3.5ft 6s 7 9 mph 1006.3mb 56f 59f
9:04am 4ft 6s 11 13 mph 1006.5mb 56f 59f
8:04am 3.5ft 6s 7 9 mph 1006.2mb 56f 61f